[[{"header":{"parameterUnit":"m.s-1","parameterCategory":1,"la1":30.2991,"la2":30.254,"lo1":-89.0895,"lo2":-89.0444,"dy":0.0017,"dx":0.0017,"nx":28,"ny":28,"refTime":"2025-05-23T03:00:00:Z","depth":0,"parameterNumber":2,"parameterNumberName":"U-component_of_WINDS"},"data":[0,0,0,0,0,0,0,0,0,0,0,0,0,0,0,0,0,0,0,0,0,0,0,0,0,0,0,0,0,0,0,0,0,0,0,0,0,0,0,0,0,0,0,0,0,0,0,0,0,0,0,0,0,0,0,0,0,0,1.1976,1.1977,0,1.2063,1.2064,1.2065,1.2096,1.2095,1.2095,1.2095,1.2179,1.2182,1.2184,0,0,0,0,0,0,0,0,0,0,0,0,0,1.1832,1.1834,1.1976,1.1977,1.1978,1.2062,1.2064,1.2065,1.2096,1.2095,1.2095,1.2095,1.2179,1.2182,1.2185,0,0,0,0,0,0,0,0,0,0,0,0,0,1.1904,1.1835,1.1976,1.2004,1.2007,1.2062,1.2064,1.2065,1.2096,1.2095,1.2095,1.2094,1.2178,1.2181,1.2185,1.2217,0,0,1.2197,1.2198,0,0,0,0,0,0,0,0,1.19,1.1909,1.1998,1.2002,1.2006,1.2068,1.2044,1.2116,1.2096,1.2062,1.2095,1.2094,1.2142,1.2149,1.2166,1.2221,1.2225,1.2197,1.2199,1.2201,1.2202,0,0,0,0,0,0,0,1.1895,1.1906,1.201,1.2,1.2004,1.201,1.202,1.2058,1.2103,1.2065,1.2067,1.2077,1.2144,1.2162,1.2168,1.2226,1.2197,1.22,1.2203,1.2204,1.2311,1.2311,0,0,0,0,0,0,1.1886,1.1901,1.2007,1.2013,1.1951,1.2013,1.2024,1.2048,1.2103,1.2111,1.2078,1.2078,1.2156,1.2164,1.2171,1.2212,1.2201,1.2204,1.2207,1.231,1.2311,1.2311,0,0,0,0,0,0,1.1882,1.1895,1.2004,1.1958,1.1972,1.2016,1.2043,1.205,1.2069,1.2113,1.2121,1.2088,1.2156,1.2166,1.2206,1.2216,1.2206,1.221,1.2309,1.231,1.2311,1.2294,0,0,0,0,0,0,1.1878,1.1894,1.1908,1.1958,1.1974,1.2038,1.2044,1.2052,1.2076,1.2077,1.2125,1.2132,1.2157,1.22,1.2209,1.2221,1.2213,1.2309,1.231,1.2311,1.2294,1.2294,1.2294,0,0,0,0,0,1.1873,1.1899,1.1908,1.1921,1.1993,1.2039,1.2048,1.2077,1.2076,1.209,1.2118,1.2131,1.2213,1.2204,1.2215,1.2227,1.2308,1.2309,1.2311,1.2294,1.2294,1.2294,0,0,0,0,0,0,1.1848,1.1906,1.1917,1.196,1.1994,1.2044,1.2062,1.2076,1.211,1.211,1.2143,1.2153,1.219,1.2212,1.2201,1.226,1.2261,1.2265,1.2245,1.2245,1.2245,1.2239,1.2216,0,0,0,0,0,1.1847,1.1881,1.1929,1.1963,1.1979,1.2018,1.2038,1.2058,1.2094,1.2108,1.2139,1.2172,1.2205,1.2227,1.226,1.2297,1.2307,1.2311,1.2311,1.2311,1.2314,1.2334,1.2336,1.2315,1.2315,1.2315,0,0,1.1846,1.1882,1.1902,1.1959,1.1987,1.2019,1.203,1.2064,1.2087,1.2112,1.2152,1.2176,1.2215,1.2253,1.2272,1.2273,1.2322,1.2313,1.2312,1.2315,1.2335,1.2337,1.2339,1.2316,1.2316,1.2316,0,0,1.1862,1.1893,1.1924,1.1952,1.1996,1.2021,1.2028,1.2075,1.2092,1.2132,1.2152,1.2179,1.2236,1.2263,1.2284,1.2308,1.232,1.2317,1.2318,1.2338,1.2339,1.2341,1.2348,1.2351,1.232,1.232,1.232,0,1.1855,1.1906,1.1937,1.197,1.1994,1.2019,1.2049,1.2075,1.2126,1.2141,1.2142,1.2214,1.2242,1.2286,1.2292,1.2308,1.2316,1.2312,1.2337,1.2339,1.2341,1.2348,1.2351,1.2319,1.2319,1.2319,1.2319,0,1.1895,1.1929,1.1949,1.1999,1.2025,1.2056,1.209,1.2112,1.2128,1.2153,1.2192,1.2227,1.2267,1.2279,1.2295,1.2325,1.2324,1.2331,1.2332,1.2341,1.2349,1.2352,1.2318,1.2318,1.2318,1.2319,0,0,1.1897,1.1963,1.197,1.1992,1.2041,1.2068,1.21,1.214,1.2157,1.2192,1.2218,1.2265,1.2271,1.2294,1.2313,1.233,1.2345,1.2335,1.2336,1.2335,1.2379,1.2374,1.2377,1.2354,1.2355,1.2355,1.2376,0,1.1918,1.1977,1.2005,1.2051,1.2083,1.2106,1.2133,1.2166,1.2189,1.2217,1.2242,1.2275,1.2281,1.2295,1.2313,1.234,1.2354,1.2339,1.2377,1.2378,1.2366,1.2381,1.2376,1.2393,1.2379,1.2379,1.238,0,1.195,1.1985,1.2035,1.2079,1.2093,1.2118,1.2156,1.2184,1.222,1.2235,1.2261,1.228,1.2312,1.2311,1.2354,1.2343,1.236,1.2375,1.2377,1.2381,1.2379,1.2385,1.24,1.2402,1.2385,1.2384,1.2384,0,1.1946,1.2005,1.2042,1.206,1.2114,1.213,1.2152,1.2188,1.221,1.2243,1.2257,1.2293,1.2312,1.2338,1.2365,1.2362,1.2406,1.2407,1.2418,1.2418,1.2427,1.2426,1.2444,1.2438,1.2438,1.2438,1.2438,0,1.1966,1.1995,1.2041,1.2063,1.2096,1.2127,1.2158,1.2182,1.2213,1.224,1.2262,1.2286,1.232,1.2348,1.2369,1.2401,1.241,1.2422,1.2427,1.242,1.2418,1.2431,1.2431,1.2439,1.2439,1.2439,1.2438,0,1.1966,1.1998,1.204,1.2087,1.2099,1.2121,1.216,1.2182,1.2206,1.2239,1.2248,1.2285,1.2319,1.2348,1.2393,1.2407,1.244,1.2446,1.2428,1.2431,1.244,1.2438,1.2467,1.2472,1.2463,1.2463,1.2463,0,1.1977,1.2,1.2049,1.2069,1.2091,1.2123,1.2146,1.2176,1.2199,1.2241,1.2257,1.2293,1.2323,1.2375,1.2405,1.2439,1.2446,1.2454,1.2451,1.2443,1.2445,1.2444,1.2445,1.2453,1.2453,1.2453,1.2453,0,1.1991,1.2006,1.2039,1.2076,1.2103,1.2134,1.2165,1.2179,1.2216,1.2239,1.2275,1.2298,1.2343,1.2378,1.2415,1.2436,1.245,1.2454,1.2458,1.2451,1.2439,1.2445,1.2427,1.2453,1.2453,1.2453,1.2453,1.2453,1.1997,1.2018,1.2056,1.2091,1.2118,1.2146,1.2169,1.2196,1.2226,1.2267,1.2282,1.2318,1.2352,1.2403,1.2424,1.2452,1.2454,1.246,1.2462,1.2463,1.2461,1.2435,1.2458,1.2458,1.2458,1.2458,1.2458,0,1.2012,1.2038,1.207,1.2113,1.214,1.2152,1.2187,1.2208,1.224,1.2271,1.23,1.234,1.2373,1.2406,1.244,1.2456,1.2463,1.2464,1.2463,1.2467,1.2457,1.245,1.2457,1.2457,1.2457,1.2457,1.2457,1.2457,1.2023,1.206,1.2078,1.2127,1.2152,1.2188,1.2207,1.2233,1.2258,1.2301,1.233,1.2351,1.2382,1.2419,1.2449,1.2458,1.2469,1.2468,1.2478,1.2468,1.2468,1.2468,1.2461,1.247,1.247,1.2486,1.2486,1.2486]},{"header":{"parameterUnit":"m.s-1","parameterCategory":1,"la1":30.2991,"la2":30.254,"lo1":-89.0895,"lo2":-89.0444,"dy":0.0017,"dx":0.0017,"nx":28,"ny":28,"refTime":"2025-05-23T03:00:00:Z","depth":0,"parameterNumber":3,"parameterNumberName":"V-component_of_WINDS"},"data":[0,0,0,0,0,0,0,0,0,0,0,0,0,0,0,0,0,0,0,0,0,0,0,0,0,0,0,0,0,0,0,0,0,0,0,0,0,0,0,0,0,0,0,0,0,0,0,0,0,0,0,0,0,0,0,0,0,0,2.0498,2.0498,0,2.0536,2.0537,2.0537,2.0509,2.0508,2.0507,2.0506,2.0543,2.0545,2.0547,0,0,0,0,0,0,0,0,0,0,0,0,0,2.0397,2.0399,2.0498,2.0498,2.0499,2.0536,2.0537,2.0537,2.051,2.0508,2.0507,2.0505,2.0542,2.0545,2.0547,0,0,0,0,0,0,0,0,0,0,0,0,0,2.0438,2.0399,2.0497,2.0489,2.0489,2.0536,2.0537,2.0537,2.051,2.0508,2.0506,2.0505,2.0542,2.0545,2.0548,2.0604,0,0,2.0558,2.0559,0,0,0,0,0,0,0,0,2.0436,2.0442,2.049,2.049,2.049,2.0516,2.0515,2.056,2.051,2.0502,2.0506,2.0504,2.0535,2.0539,2.055,2.0606,2.0608,2.0558,2.056,2.0561,2.0562,0,0,0,0,0,0,0,2.0433,2.044,2.0513,2.0491,2.0491,2.0483,2.0487,2.0523,2.0528,2.0503,2.0501,2.0506,2.0535,2.0547,2.0551,2.0608,2.0558,2.0561,2.0563,2.0564,2.071,2.0712,0,0,0,0,0,0,2.0431,2.0438,2.0511,2.0514,2.0458,2.0486,2.049,2.0509,2.0528,2.0529,2.0507,2.0504,2.0543,2.0547,2.0552,2.0618,2.0561,2.0564,2.0566,2.0708,2.071,2.0712,0,0,0,0,0,0,2.0429,2.0438,2.051,2.0475,2.0484,2.049,2.0511,2.0511,2.0523,2.0532,2.0532,2.0519,2.0541,2.0548,2.0591,2.0619,2.0566,2.0569,2.0705,2.0709,2.0711,2.0751,0,0,0,0,0,0,2.0427,2.0438,2.046,2.0476,2.0486,2.055,2.0513,2.0513,2.0529,2.0526,2.0543,2.0544,2.054,2.0587,2.0594,2.0622,2.0571,2.0703,2.0707,2.071,2.0747,2.0755,2.0762,0,0,0,0,0,2.0423,2.047,2.0461,2.047,2.0514,2.0551,2.0557,2.0553,2.0532,2.0553,2.0558,2.0543,2.0615,2.0591,2.06,2.0629,2.0701,2.0706,2.071,2.0744,2.0754,2.0762,0,0,0,0,0,0,2.0457,2.0472,2.0463,2.0516,2.0533,2.0547,2.0574,2.0563,2.0585,2.0581,2.0574,2.0578,2.0624,2.0631,2.0604,2.0684,2.0654,2.0661,2.0677,2.0687,2.0694,2.0691,2.0574,0,0,0,0,0,2.047,2.05,2.0511,2.0557,2.0566,2.0569,2.0585,2.058,2.0596,2.0603,2.0611,2.0627,2.0653,2.067,2.0695,2.0748,2.0751,2.0773,2.078,2.0786,2.0791,2.0818,2.0828,2.0727,2.0727,2.0727,0,0,2.0499,2.0511,2.053,2.0564,2.0576,2.0606,2.0575,2.0608,2.0629,2.0608,2.0649,2.0656,2.0673,2.0721,2.0743,2.0729,2.0819,2.0791,2.0796,2.0798,2.0824,2.0833,2.0842,2.073,2.0729,2.0729,0,0,2.0565,2.0578,2.0617,2.063,2.0649,2.065,2.0659,2.0674,2.0678,2.072,2.0704,2.0728,2.0774,2.0786,2.0798,2.0868,2.0854,2.0876,2.0913,2.094,2.0948,2.0955,2.0979,2.0987,2.0881,2.0881,2.0882,0,2.0598,2.0643,2.0638,2.0672,2.0687,2.0669,2.0708,2.072,2.0746,2.0756,2.0739,2.0795,2.0805,2.0855,2.0872,2.0883,2.0892,2.0874,2.0947,2.0954,2.0961,2.0983,2.0992,2.0884,2.0884,2.0883,2.0883,0,2.0682,2.0713,2.0742,2.0767,2.0785,2.0822,2.0821,2.084,2.0833,2.0835,2.0877,2.0889,2.0914,2.0926,2.092,2.0975,2.0965,2.0948,2.0919,2.0973,2.0994,2.1002,2.0887,2.0887,2.0886,2.0885,0,0,2.0772,2.0793,2.0804,2.0814,2.0833,2.0856,2.0891,2.0916,2.0932,2.095,2.0977,2.1015,2.0999,2.1013,2.1008,2.1031,2.1084,2.1011,2.1011,2.1023,2.1144,2.1156,2.1166,2.1075,2.1077,2.1078,2.1142,0,2.0839,2.09,2.0895,2.0952,2.098,2.0962,2.0992,2.1006,2.1009,2.1032,2.1035,2.1061,2.1039,2.1047,2.1069,2.1073,2.1108,2.1068,2.11,2.1101,2.1096,2.1178,2.1191,2.1251,2.115,2.1152,2.1153,0,2.0925,2.0946,2.1006,2.1019,2.103,2.1057,2.1079,2.1102,2.1117,2.1117,2.1132,2.1122,2.1155,2.1125,2.117,2.1143,2.1156,2.1159,2.1161,2.1164,2.113,2.1181,2.127,2.1279,2.1166,2.1165,2.1164,0,2.0983,2.1026,2.1067,2.1077,2.1093,2.1112,2.112,2.1133,2.1148,2.1167,2.1176,2.1199,2.1211,2.1228,2.1224,2.1203,2.127,2.1239,2.127,2.127,2.1284,2.1284,2.1376,2.1294,2.1293,2.1293,2.1293,0,2.1059,2.1095,2.1093,2.1119,2.1159,2.1153,2.1192,2.1197,2.1209,2.1234,2.122,2.1243,2.1237,2.126,2.1257,2.1294,2.1299,2.13,2.1298,2.1301,2.1301,2.1308,2.1304,2.1296,2.1295,2.1295,2.1294,0,2.1131,2.1131,2.1174,2.1186,2.1189,2.1218,2.1228,2.1251,2.1252,2.1283,2.129,2.1292,2.1318,2.1316,2.1345,2.1343,2.1388,2.1382,2.1383,2.1382,2.1412,2.1409,2.1512,2.1525,2.1435,2.1436,2.1437,0,2.1178,2.1206,2.1221,2.1236,2.1245,2.1271,2.1286,2.1281,2.1297,2.1315,2.1335,2.136,2.1379,2.1421,2.1424,2.1446,2.144,2.1475,2.1443,2.1444,2.1439,2.1438,2.144,2.1481,2.1482,2.1483,2.1483,0,2.1262,2.1261,2.1284,2.1306,2.1324,2.1341,2.1357,2.1371,2.1366,2.1385,2.1411,2.1426,2.1456,2.148,2.15,2.1507,2.1494,2.1493,2.1501,2.1504,2.1503,2.1503,2.14,2.1491,2.149,2.1489,2.1489,2.1489,2.1323,2.1347,2.136,2.1385,2.1396,2.1411,2.1433,2.1436,2.1458,2.1482,2.1477,2.1506,2.1519,2.1545,2.1553,2.1575,2.1563,2.1575,2.1577,2.158,2.1583,2.15,2.1579,2.1579,2.1579,2.1578,2.1578,0,2.1406,2.1413,2.1437,2.1459,2.1478,2.1465,2.1481,2.1498,2.1524,2.1536,2.1556,2.1585,2.1608,2.1613,2.1634,2.1651,2.1645,2.1657,2.1655,2.1656,2.1594,2.1584,2.1661,2.1661,2.166,2.166,2.166,2.166,2.1451,2.149,2.1489,2.1532,2.1539,2.1568,2.1578,2.1591,2.1601,2.1635,2.1654,2.1657,2.1666,2.1687,2.1707,2.1708,2.1716,2.173,2.1728,2.1669,2.1661,2.1653,2.1644,2.1732,2.1732,2.1789,2.1789,2.179]}]]